This is the latest recevied weather packets stored in our database for station/object DL8BGD. If no packets are shown the sender has not sent any weather packets the latest 10 day(s).
| Time | Temp. | Humidity | Pressure | Rain* | Wind** | Luminosity | Snow |
|---|---|---|---|---|---|---|---|
| 1788602850 | 18.33° C | 62% | 1027.1 hPa | 0 mm | - | - | - |
| 1788602250 | 17.78° C | 65% | 1027.3 hPa | 0 mm | - | - | - |
| 1788601650 | 17.22° C | 69% | 1027.4 hPa | 0 mm | - | - | - |
| 1788601049 | 16.67° C | 71% | 1027.4 hPa | 0 mm | - | - | - |
| 1788600449 | 16.67° C | 71% | 1027.4 hPa | 0 mm | - | - | - |
| 1788599848 | 16.67° C | 70% | 1027.4 hPa | 0 mm | - | - | - |
| 1788598648 | 16.67° C | 70% | 1027.4 hPa | 0 mm | - | - | - |
| 1788598076 | 17.22° C | 68% | 1027.1 hPa | 0 mm | - | - | - |
| 1788597447 | 16.67° C | 68% | 1027.1 hPa | 0 mm | - | - | - |
| 1788596847 | 16.67° C | 66% | 1027 hPa | 0 mm | - | - | - |
| 1788595646 | 16.67° C | 70% | 1027.6 hPa | 0 mm | - | - | - |
| 1788595046 | 16.67° C | 70% | 1027.2 hPa | 0 mm | - | - | - |
| 1788594445 | 16.67° C | 68% | 1027.3 hPa | 0 mm | - | - | - |
| 1788593845 | 16.67° C | 66% | 1027.3 hPa | 0 mm | - | - | - |
| 1788586380 | 20° C | 61% | 1024.6 hPa | 0 mm | - | - | - |
| 1788585780 | 20.56° C | 60% | 1024.4 hPa | 0 mm | - | - | - |
| 1788585179 | 20.56° C | 59% | 1023.7 hPa | 0 mm | - | - | - |
| 1788544827 | 22.22° C | 52% | 1019.8 hPa | 0 mm | - | - | - |
| 1788544226 | 22.78° C | 50% | 1019.7 hPa | 0 mm | - | - | - |
| 1788543626 | 23.33° C | 51% | 1019.5 hPa | 0 mm | - | - | - |
| 1788543025 | 23.33° C | 48% | 1019.4 hPa | 0 mm | - | - | - |
| 1788542427 | 24.44° C | 46% | 1019.4 hPa | 0 mm | - | - | - |
| 1788541824 | 25° C | 43% | 1019.3 hPa | 0 mm | - | - | - |
| 1788541224 | 25.56° C | 39% | 1019.2 hPa | 0 mm | - | - | - |
| 1788540624 | 26.67° C | 37% | 1019.1 hPa | 0 mm | - | - | - |
* Rain since midnight (hover to see other rain measurements)
** Current wind speed in m/s (hover to see current wind gust speed)